This demonstration page uses our WeatherBlox Daily Observations layout. Learn more.

Left ArrowRight Arrow

34.74481, -87.66753

Hourly Observations for October 6, 2022

Temp ( °F °C ) Dew Point ( °F °C ) Humidity (%) Winds ( mph kmh ) Pressure ( in mb ) Visibility ( mi km ) Precip ( " mm )
12:53 am 00:53 undefined 50 10 46 7.8 86 86 Calm 30.08 1019 10 16 0.00 0.00
1:53 am 01:53 undefined 49 9.4 47 8.3 93 93 Calm 30.09 1019 10 16 0.00 0.00
2:53 am 02:53 undefined 49 9.4 46 7.8 90 90 Calm 30.09 1019 10 16 0.00 0.00
3:53 am 03:53 undefined 47 8.3 44 6.7 90 90 Calm 30.08 1019 10 16 0.00 0.00
4:53 am 04:53 undefined 47 8.3 44 6.7 90 90 Calm 30.08 1019 10 16 0.00 0.00
5:53 am 05:53 undefined 47 8.3 45 7.2 93 93 Calm 30.10 1019 9 14 0.00 0.00
6:53 am 06:53 undefined 46 7.8 44 6.7 93 93 Calm 30.11 1020 7 11 0.00 0.00
7:53 am 07:53 undefined 51 10.6 48 8.9 89 89 Calm 30.13 1020 9 14 0.00 0.00
8:53 am 08:53 undefined 58 14.4 53 11.7 84 84 Calm 30.14 1021 10 16 0.00 0.00
9:53 am 09:53 undefined 67 19.4 51 10.6 57 57 VRB 5 7 30.14 1021 10 16 0.00 0.00
10:53 am 10:53 Sunny 75 23.9 50 10 41 41 VRB 3 6 30.12 1020 10 16 0.00 0.00
11:53 am 11:53 Sunny 80 26.7 46 7.8 30 30 SW 5 7 30.11 1020 10 16 0.00 0.00
12:53 pm 12:53 Sunny 82 27.8 45 7.2 27 27 W 8 13 30.08 1019 10 16 0.00 0.00
1:53 pm 13:53 Sunny 83 28.3 45 7.2 26 26 W 8 13 30.06 1018 10 16 0.00 0.00
2:53 pm 14:53 Sunny 83 28.3 45 7.2 26 26 NNW 7 11 30.04 1017 10 16 0.00 0.00
3:53 pm 15:53 Sunny 84 28.9 47 8.3 27 27 W 5 7 30.04 1017 10 16 0.00 0.00
4:53 pm 16:53 Sunny 83 28.3 48 8.9 30 30 W 9 15 30.03 1017 10 16 0.00 0.00
5:53 pm 17:53 Sunny 80 26.7 48 8.9 33 33 SSW 3 6 30.04 1017 10 16 0.00 0.00
6:53 pm 18:53 Clear 69 20.6 53 11.7 57 57 Calm 30.05 1018 10 16 0.00 0.00
7:53 pm 19:53 Clear 65 18.3 54 12.2 68 68 Calm 30.06 1018 10 16 0.00 0.00
8:53 pm 20:53 Clear 62 16.7 52 11.1 70 70 Calm 30.09 1019 10 16 0.00 0.00
9:53 pm 21:53 Clear 60 15.6 52 11.1 75 75 Calm 30.10 1019 10 16 0.00 0.00
10:53 pm 22:53 Clear 58 14.4 52 11.1 81 81 Calm 30.10 1019 10 16 0.00 0.00
11:53 pm 23:53 Clear 57 13.9 52 11.1 83 83 Calm 30.11 1020 10 16 0.00 0.00

Powered by AerisWeather